VIR12D LIRF-EGLL

Flight info

Callsign VIR12D
Flight time N/A
Altitude 40000
Route NEMBO DCT GOVGO DCT SPEZI DCT OTMUV DCT AOSTA DCT ORSUD DCT MOLUS DCT GILIR DCT PENDU DCT IXILU DCT EPL DCT ROUSY DCT RITAX M624 BUB L608 LOGAN
Aircraft A35K/H-SDE2E3GHIJ3J4J5LM1ORWXY/LB1D1

Departure

Time N/A
Airport Rome–Fiumicino Leonardo da Vinci International Airport (LIRF)

Arrival

Time 2026-05-06 09:06
Airport London Heathrow Airport (EGLL)
Time Latitude Longitude Altitude Speed Heading
2026-05-06 08:26 50.95139 4.41172 39870 ft 489 kts 299°
2026-05-06 08:26 50.98665 4.31920 39855 ft 489 kts 299°
2026-05-06 08:27 51.02156 4.22703 39858 ft 489 kts 299°
2026-05-06 08:27 51.05678 4.13416 39872 ft 489 kts 299°
2026-05-06 08:28 51.09178 4.04178 39868 ft 489 kts 299°
2026-05-06 08:28 51.12687 3.94888 39866 ft 489 kts 299°
2026-05-06 08:29 51.16166 3.85642 39863 ft 489 kts 299°
2026-05-06 08:29 51.19654 3.76336 39875 ft 489 kts 299°
2026-05-06 08:30 51.23153 3.66988 39872 ft 489 kts 299°
2026-05-06 08:30 51.26614 3.57707 39877 ft 489 kts 299°
2026-05-06 08:31 51.30084 3.48357 39878 ft 489 kts 299°
2026-05-06 08:31 51.33550 3.38965 39882 ft 489 kts 298°
2026-05-06 08:32 51.36332 3.29130 39885 ft 487 kts 289°
2026-05-06 08:32 51.38775 3.18943 39891 ft 487 kts 288°
2026-05-06 08:33 51.41138 3.08845 39894 ft 486 kts 289°
2026-05-06 08:33 51.43531 2.98667 39824 ft 483 kts 288°
2026-05-06 08:34 51.44690 2.93723 39268 ft 480 kts 289°
2026-05-06 08:34 51.47041 2.83649 37761 ft 482 kts 289°
2026-05-06 08:34 51.48214 2.78604 36958 ft 481 kts 288°
2026-05-06 08:35 51.49382 2.73573 36210 ft 480 kts 288°
2026-05-06 08:35 51.50546 2.68542 35421 ft 480 kts 289°
2026-05-06 08:35 51.51693 2.63571 34617 ft 480 kts 289°
2026-05-06 08:35 51.52853 2.58531 33839 ft 480 kts 290°
2026-05-06 08:36 51.54014 2.53487 32874 ft 481 kts 290°
2026-05-06 08:36 51.55174 2.48437 31885 ft 483 kts 290°
2026-05-06 08:36 51.56334 2.43401 30868 ft 486 kts 289°
2026-05-06 08:36 51.57501 2.38286 29854 ft 488 kts 289°
2026-05-06 08:37 51.58675 2.33132 28866 ft 487 kts 289°
2026-05-06 08:37 51.59821 2.28107 28144 ft 481 kts 289°
2026-05-06 08:37 51.60964 2.23068 27406 ft 476 kts 289°
2026-05-06 08:37 51.62092 2.18083 26705 ft 471 kts 289°
2026-05-06 08:38 51.63212 2.13121 26129 ft 465 kts 289°
2026-05-06 08:38 51.64318 2.08226 25718 ft 465 kts 289°
2026-05-06 08:38 51.65407 2.03378 25336 ft 463 kts 289°
2026-05-06 08:38 51.66493 1.98516 25015 ft 459 kts 289°
2026-05-06 08:39 51.67576 1.93660 24935 ft 457 kts 288°
2026-05-06 08:39 51.68637 1.88896 24942 ft 457 kts 288°
2026-05-06 08:39 51.69705 1.84095 24592 ft 451 kts 288°
2026-05-06 08:39 51.70759 1.79331 23820 ft 449 kts 288°
2026-05-06 08:40 51.71804 1.74599 23046 ft 445 kts 288°
2026-05-06 08:40 51.72825 1.69965 22275 ft 441 kts 288°
2026-05-06 08:40 51.73832 1.65302 21502 ft 437 kts 287°
2026-05-06 08:40 51.74458 1.60553 20860 ft 428 kts 275°
2026-05-06 08:41 51.74440 1.55779 20136 ft 423 kts 265°
2026-05-06 08:41 51.74147 1.51079 19491 ft 417 kts 264°
2026-05-06 08:41 51.73836 1.46491 19087 ft 414 kts 264°
2026-05-06 08:41 51.73524 1.41833 18962 ft 416 kts 264°
2026-05-06 08:42 51.73220 1.37245 18941 ft 413 kts 264°
2026-05-06 08:42 51.72916 1.32671 18490 ft 408 kts 264°
2026-05-06 08:42 51.72608 1.28124 17650 ft 406 kts 264°
2026-05-06 08:42 51.72298 1.23580 16785 ft 404 kts 264°
2026-05-06 08:43 51.72003 1.19085 16196 ft 398 kts 264°
2026-05-06 08:43 51.71717 1.14725 15978 ft 396 kts 264°
2026-05-06 08:43 51.71424 1.10296 15949 ft 397 kts 264°
2026-05-06 08:43 51.71127 1.05859 15948 ft 397 kts 264°
2026-05-06 08:44 51.70825 1.01409 15949 ft 398 kts 264°
2026-05-06 08:44 51.70528 0.97066 15621 ft 389 kts 264°
2026-05-06 08:44 51.70232 0.92740 14861 ft 386 kts 264°
2026-05-06 08:44 51.69934 0.88419 14006 ft 387 kts 264°
2026-05-06 08:45 51.69632 0.84106 13155 ft 386 kts 264°
2026-05-06 08:45 51.69329 0.79814 12353 ft 382 kts 264°
2026-05-06 08:45 51.69029 0.75584 11598 ft 378 kts 265°
2026-05-06 08:45 51.68735 0.71433 10842 ft 374 kts 265°
2026-05-06 08:46 51.68440 0.67268 10046 ft 372 kts 265°
2026-05-06 08:46 51.68150 0.63191 9346 ft 353 kts 265°
2026-05-06 08:46 51.67875 0.59436 9014 ft 325 kts 265°
2026-05-06 08:46 51.67616 0.55896 8800 ft 309 kts 266°
2026-05-06 08:47 51.67371 0.52526 8552 ft 296 kts 266°
2026-05-06 08:47 51.67139 0.49336 8315 ft 285 kts 266°
2026-05-06 08:47 51.66914 0.46202 8011 ft 276 kts 266°
2026-05-06 08:47 51.66691 0.43143 7968 ft 274 kts 266°
2026-05-06 08:48 51.66466 0.40077 7967 ft 274 kts 266°
2026-05-06 08:48 51.66243 0.37063 7969 ft 274 kts 266°
2026-05-06 08:48 51.66016 0.34008 7984 ft 274 kts 266°
2026-05-06 08:48 51.65788 0.30949 7985 ft 274 kts 266°
2026-05-06 08:49 51.65564 0.27931 7986 ft 274 kts 266°
2026-05-06 08:49 51.65339 0.24881 7987 ft 274 kts 266°
2026-05-06 08:49 51.65110 0.21827 7989 ft 274 kts 266°
2026-05-06 08:49 51.64886 0.18832 7983 ft 261 kts 266°
2026-05-06 08:50 51.64667 0.16022 7983 ft 245 kts 266°
2026-05-06 08:50 51.64454 0.13365 7990 ft 242 kts 266°
2026-05-06 08:50 51.64237 0.10676 7989 ft 241 kts 266°
2026-05-06 08:50 51.64020 0.08003 7990 ft 242 kts 266°
2026-05-06 08:51 51.63801 0.05342 7990 ft 241 kts 266°
2026-05-06 08:51 51.63581 0.02659 7991 ft 241 kts 266°
2026-05-06 08:51 51.63363 -0.00026 7976 ft 241 kts 266°
2026-05-06 08:51 51.63148 -0.02681 8006 ft 241 kts 266°
2026-05-06 08:52 51.62952 -0.05214 8011 ft 241 kts 266°
2026-05-06 08:52 51.62748 -0.07863 8013 ft 241 kts 266°
2026-05-06 08:52 51.62537 -0.10544 8013 ft 241 kts 266°
2026-05-06 08:52 51.62332 -0.13225 8019 ft 241 kts 266°
2026-05-06 08:53 51.62127 -0.15908 8019 ft 241 kts 266°
2026-05-06 08:53 51.61916 -0.18592 8017 ft 241 kts 266°
2026-05-06 08:53 51.61707 -0.21279 8021 ft 242 kts 266°
2026-05-06 08:53 51.61498 -0.23952 8021 ft 241 kts 266°
2026-05-06 08:54 51.61286 -0.26598 8021 ft 241 kts 266°
2026-05-06 08:54 51.61076 -0.29271 8017 ft 242 kts 266°
2026-05-06 08:54 51.60864 -0.31955 7889 ft 237 kts 266°
2026-05-06 08:54 51.60654 -0.34569 7548 ft 236 kts 265°
2026-05-06 08:55 51.60446 -0.37196 7167 ft 236 kts 266°
2026-05-06 08:55 51.60236 -0.39783 6806 ft 235 kts 266°
2026-05-06 08:55 51.60011 -0.42383 6477 ft 233 kts 266°
2026-05-06 08:55 51.59781 -0.44958 6110 ft 232 kts 266°
2026-05-06 08:56 51.59541 -0.47527 5700 ft 232 kts 266°
2026-05-06 08:56 51.59294 -0.50100 5295 ft 233 kts 266°
2026-05-06 08:56 51.59041 -0.52671 5045 ft 232 kts 266°
2026-05-06 08:56 51.58872 -0.54369 5012 ft 233 kts 266°
2026-05-06 08:57 51.58533 -0.57772 5010 ft 233 kts 266°
2026-05-06 08:57 51.58277 -0.60347 5007 ft 233 kts 266°
2026-05-06 08:57 51.58105 -0.62061 5012 ft 233 kts 266°
2026-05-06 08:57 51.57755 -0.65505 4753 ft 232 kts 266°
2026-05-06 08:58 51.57580 -0.67207 4487 ft 233 kts 266°
2026-05-06 08:58 51.57237 -0.70623 3963 ft 233 kts 266°
2026-05-06 08:58 51.57070 -0.72340 3709 ft 234 kts 265°
2026-05-06 08:58 51.56824 -0.74969 3330 ft 235 kts 266°
2026-05-06 08:59 51.56593 -0.77532 3043 ft 233 kts 265°
2026-05-06 08:59 51.56229 -0.80099 2995 ft 239 kts 250°
2026-05-06 08:59 51.55222 -0.82162 2999 ft 230 kts 217°
2026-05-06 08:59 51.53802 -0.83047 3027 ft 214 kts 187°
2026-05-06 09:00 51.52323 -0.83248 3009 ft 212 kts 181°
2026-05-06 09:00 51.50848 -0.83343 3004 ft 213 kts 180°
2026-05-06 09:00 51.49364 -0.83385 2998 ft 212 kts 176°
2026-05-06 09:00 51.48063 -0.82492 3007 ft 205 kts 131°
2026-05-06 09:01 51.47514 -0.80521 3011 ft 191 kts 86°
2026-05-06 09:01 51.47601 -0.78424 3006 ft 188 kts 79°
2026-05-06 09:01 51.47669 -0.76313 3004 ft 190 kts 84°
2026-05-06 09:01 51.47666 -0.74243 2996 ft 183 kts 85°
2026-05-06 09:02 51.47667 -0.72218 3004 ft 180 kts 84°
2026-05-06 09:02 51.47671 -0.70247 2856 ft 174 kts 84°
2026-05-06 09:02 51.47678 -0.68295 2608 ft 176 kts 84°
2026-05-06 09:02 51.47687 -0.66351 2364 ft 180 kts 86°
2026-05-06 09:03 51.47694 -0.64304 2105 ft 186 kts 85°
2026-05-06 09:03 51.47699 -0.62230 1827 ft 181 kts 85°
2026-05-06 09:03 51.47705 -0.60322 1577 ft 166 kts 85°
2026-05-06 09:03 51.47711 -0.58545 1353 ft 150 kts 85°
2026-05-06 09:04 51.47716 -0.56965 1155 ft 137 kts 85°
2026-05-06 09:04 51.47722 -0.55476 969 ft 131 kts 84°
2026-05-06 09:04 51.47731 -0.53996 827 ft 133 kts 84°
2026-05-06 09:04 51.47733 -0.52498 659 ft 134 kts 85°
2026-05-06 09:05 51.47745 -0.51033 435 ft 132 kts 85°
2026-05-06 09:05 51.47737 -0.49739 270 ft 133 kts 86°
2026-05-06 09:05 51.47750 -0.48244 133 ft 134 kts 86°
2026-05-06 09:05 51.47758 -0.46783 98 ft 119 kts 89°
2026-05-06 09:06 51.47761 -0.45689 92 ft 80 kts 89°
2026-05-06 09:06 51.47764 -0.45015 95 ft 40 kts 90°
2026-05-06 09:06 51.47755 -0.44633 98 ft 30 kts 101°
2026-05-06 09:06 51.47693 -0.44361 97 ft 14 kts 115°
2026-05-06 09:07 51.47655 -0.44255 96 ft 10 kts 134°
2026-05-06 09:07 51.47633 -0.44236 96 ft 1 kts 161°
2026-05-06 09:07 51.47613 -0.44239 94 ft 4 kts 197°
2026-05-06 09:07 51.47600 -0.44281 97 ft 5 kts 265°
2026-05-06 09:08 51.47600 -0.44369 94 ft 10 kts 269°
2026-05-06 09:08 51.47599 -0.44506 92 ft 15 kts 269°
2026-05-06 09:08 51.47598 -0.44695 92 ft 19 kts 269°
2026-05-06 09:08 51.47598 -0.44918 92 ft 23 kts 270°
2026-05-06 09:09 51.47598 -0.45153 92 ft 16 kts 269°
2026-05-06 09:09 51.47597 -0.45352 93 ft 20 kts 270°
2026-05-06 09:09 51.47596 -0.45594 95 ft 24 kts 270°
2026-05-06 09:09 51.47595 -0.45789 95 ft 17 kts 269°
2026-05-06 09:10 51.47595 -0.45994 94 ft 21 kts 270°
2026-05-06 09:10 51.47594 -0.46246 95 ft 24 kts 270°
2026-05-06 09:10 51.47594 -0.46533 95 ft 28 kts 270°
2026-05-06 09:10 51.47592 -0.46792 93 ft 15 kts 269°
2026-05-06 09:11 51.47561 -0.46915 97 ft 11 kts 217°
2026-05-06 09:11 51.47474 -0.46905 95 ft 15 kts 164°
2026-05-06 09:11 51.47357 -0.46868 93 ft 20 kts 175°
2026-05-06 09:11 51.47259 -0.46850 95 ft 10 kts 150°
2026-05-06 09:12 51.47238 -0.46738 93 ft 13 kts 93°
2026-05-06 09:12 51.47239 -0.46572 92 ft 17 kts 89°
2026-05-06 09:12 51.47223 -0.46409 96 ft 15 kts 132°
2026-05-06 09:12 51.47129 -0.46302 96 ft 15 kts 145°
2026-05-06 09:13 51.47058 -0.46224 96 ft 9 kts 145°
2026-05-06 09:13 51.47019 -0.46222 95 ft 7 kts 212°
2026-05-06 09:13 51.46995 -0.46262 95 ft 2 kts 236°
2026-05-06 09:13 51.46987 -0.46284 97 ft 1 kts 236°
2026-05-06 09:14 51.46982 -0.46294 97 ft 0 kts 236°
2026-05-06 09:14 51.46981 -0.46297 97 ft 0 kts 236°